Theta_e
312 311 310 308 306 307 307 305 303 306 304 302 305 305 305 301 303 303 302 303 303 303 303 303 306 306 306 307 308 310 310 309 310 307 306 307 309 309 309 308 308 308
312 310 308 306 304 304 303 304 303 304 302 302 303 303 301 301 301 302 301 300 300 300 300 301 302 303 304 305 304 304 305 307 307 308 307 306 305 306 306 306 306 306
309 307 306 304 304 303 302 302 302 302 302 300 301 302 302 299 301 299 300 300 300 300 300 300 300 301 302 304 303 302 303 304 304 305 305 305 305 305 305 305 305 305
304 304 303 302 302 301 301 301 300 300 300 300 299 300 300 299 298 298 298 297 298 298 297 298 297 298 297 297 298 297 298 298 299 300 299 298 298 298 301 300 301 302
301 301 301 301 300 300 300 300 298 298 298 297 297 297 298 298 297 296 295 294 295 294 295 295 296 296 296 296 294 294 294 293 295 295 293 292 292 294 298 298 298 298
298 299 299 299 299 299 298 297 296 296 296 297 296 296 295 294 293 293 292 293 292 292 293 292 293 292 293 292 292 292 292 293 292 291 291 291 290 291 293 293 293 295
298 298 297 297 297 296 296 295 294 294 294 293 292 292 292 292 292 290 289 291 291 291 290 290 290 291 290 290 289 290 289 289 290 290 290 289 288 291 289 289 290 292
296 296 296 296 295 294 293 292 291 291 290 291 292 289 291 291 290 289 289 290 291 289 288 286 288 290 287 289 288 288 288 289 288 288 288 288 287 289 289 288 288 290
293 293 293 292 292 291 291 290 290 289 289 290 290 290 289 289 289 290 289 289 289 288 288 287 287 286 285 287 287 287 288 287 286 286 287 288 288 289 289 288 288 288
291 291 291 290 289 289 289 288 289 288 288 289 289 288 290 289 289 289 288 288 288 287 286 285 286 285 286 285 288 288 288 287 287 286 286 286 287 288 288 288 288 288
289 289 289 288 288 287 287 287 287 288 288 288 289 289 288 288 288 287 287 288 288 287 287 286 287 286 286 286 286 286 287 287 286 286 285 286 286 287 288 287 287 287
287 287 287 287 287 287 287 287 287 288 288 287 288 288 287 287 287 286 286 286 285 286 286 286 286 285 286 286 286 285 285 284 284 285 284 285 285 286 285 285 286 286
287 287 287 287 286 286 286 286 287 286 287 287 286 286 286 286 285 285 284 284 285 285 285 286 286 285 285 285 285 284 284 283 283 283 284 283 284 284 285 285 285 285
286 286 286 286 286 285 286 286 286 286 286 286 286 286 285 284 284 283 283 283 284 284 285 284 284 284 284 284 284 284 283 283 283 283 283 283 283 284 284 284 285 285
286 286 286 286 285 286 286 285 285 285 285 285 285 285 285 283 283 283 284 284 283 284 284 284 286 286 285 285 285 285 284 284 283 283 283 283 283 283 283 284 284 284
286 285 285 285 285 285 285 285 285 284 284 284 284 283 283 282 282 283 283 284 284 284 284 285 285 285 286 289 290 286 284 284 283 282 282 282 283 283 283 283 283 283
285 285 285 284 284 284 284 284 284 284 283 283 283 282 283 283 283 283 282 283 283 284 283 284 284 284 288 290 291 291 286 283 282 283 282 282 282 282 282 282 282 282
284 284 284 283 283 283 283 282 282 282 282 282 281 281 281 281 282 282 282 282 283 282 282 283 283 286 290 290 290 291 290 286 283 283 283 282 282 282 282 282 282 282
283 283 283 282 282 282 282 282 281 281 281 280 280 280 280 281 280 281 281 281 281 282 282 282 281 286 288 289 289 290 290 288 283 281 282 281 281 281 281 281 281 281
282 282 282 281 281 281 281 281 281 281 280 280 279 280 279 280 279 279 280 280 280 280 281 281 281 284 288 288 288 289 290 289 281 281 281 280 280 280 281 280 281 281
281 281 281 280 280 280 280 280 280 279 279 278 278 279 278 278 279 278 280 278 280 280 280 281 282 285 287 287 288 288 288 287 281 281 280 279 280 279 280 280 280 281
281 281 280 280 280 279 279 279 278 277 277 278 277 277 276 277 278 277 277 278 278 278 279 279 280 284 286 287 287 287 287 283 280 280 279 279 279 278 279 279 279 280
280 280 280 279 279 278 278 278 277 276 276 277 275 275 275 276 276 277 277 278 277 277 277 278 278 282 285 286 286 287 285 280 279 279 279 279 279 279 279 279 279 280
279 279 279 278 277 277 277 276 275 275 275 276 275 275 275 275 277 277 277 276 276 276 277 276 276 280 284 284 285 285 285 280 279 278 278 278 278 279 279 279 280 281
278 278 277 277 276 276 275 275 275 275 275 274 274 274 275 276 276 275 274 274 274 275 278 276 274 277 282 283 284 284 283 279 279 277 277 277 278 278 279 279 279 280
277 277 277 276 276 275 275 275 275 275 274 274 274 273 273 274 273 273 272 274 275 275 275 274 274 273 278 282 282 283 283 280 277 276 276 277 278 278 278 279 279 280
Wind_Speed
7 6 6 6 6 5 5 4 3 5 3 4 6 5 6 4 4 5 4 4 4 4 3 2 1 1 1 1 2 3 4 3 4 3 4 3 4 4 5 5 5 4
5 5 6 6 5 6 5 6 6 7 6 5 6 5 4 4 4 4 4 4 4 4 4 4 4 3 3 2 2 3 4 4 5 3 5 5 5 6 6 5 5 5
5 5 5 5 6 6 6 5 6 6 6 5 5 5 5 4 5 4 5 5 5 5 5 4 5 4 4 4 2 2 2 2 3 2 2 3 4 3 4 5 4 4
5 6 6 6 6 6 5 7 6 6 5 6 5 5 5 4 5 5 5 5 5 5 4 5 4 4 4 4 4 6 3 2 2 3 4 4 5 5 5 4 4 4
6 6 6 6 5 6 6 7 6 6 6 5 5 5 6 5 5 5 6 6 5 5 5 5 5 5 5 5 4 5 4 4 5 5 5 5 4 4 5 5 5 6
5 5 5 6 6 7 7 6 5 5 5 6 5 5 5 5 6 6 5 6 5 5 5 5 5 4 5 4 5 4 4 6 5 5 5 5 4 3 2 4 4 5
6 7 7 7 7 7 7 6 5 5 5 4 5 5 5 6 6 5 4 5 5 5 6 5 4 4 4 4 4 5 5 4 4 5 5 5 4 5 4 3 4 5
7 6 7 7 8 7 7 6 5 5 4 5 6 4 5 5 5 4 4 5 6 5 5 4 3 3 4 5 4 5 4 3 4 4 4 4 4 5 5 4 4 5
7 7 7 8 9 7 7 6 5 5 5 6 6 5 4 4 4 5 6 6 6 5 5 4 4 4 4 4 3 3 3 4 3 3 4 5 5 5 5 4 5 5
8 7 9 8 8 6 7 5 6 6 5 6 5 5 6 5 5 5 6 6 6 5 5 4 4 3 4 3 3 2 3 3 4 3 3 4 4 5 5 5 5 6
8 7 8 7 7 6 7 6 6 6 5 5 6 7 5 6 6 5 5 5 5 4 3 3 2 2 3 3 3 2 1 2 3 3 4 4 4 4 5 5 5 6
7 7 7 7 7 7 7 7 6 5 6 6 5 6 6 6 6 5 5 4 4 2 2 2 2 1 1 1 1 2 2 2 2 3 4 4 4 5 4 5 5 7
7 6 6 7 7 7 6 5 5 6 6 6 5 6 7 6 5 5 4 4 3 2 2 1 1 2 2 2 3 3 3 3 4 4 4 4 4 5 5 5 6 6
6 6 7 7 7 6 5 5 6 7 7 6 6 7 7 5 5 4 2 1 1 1 1 1 2 3 4 4 4 4 4 4 4 4 5 5 5 5 5 6 6 6
7 6 6 7 7 6 6 6 7 6 6 7 6 6 5 4 3 1 1 1 1 2 3 3 4 4 3 4 4 5 4 4 4 4 5 6 6 6 6 6 6 6
7 7 7 6 7 7 6 6 7 7 7 6 5 4 3 2 2 1 1 2 3 4 4 4 4 3 5 9 7 4 4 4 5 4 5 5 6 7 6 5 6 7
8 7 7 8 6 6 6 7 7 6 6 5 4 3 2 1 1 2 3 3 4 4 4 4 3 3 9 10 10 10 5 4 4 5 4 5 6 7 8 8 7 6
7 7 8 7 7 7 6 6 6 6 5 4 3 3 2 2 3 3 3 3 3 3 4 4 4 7 9 9 10 11 9 6 4 4 5 5 5 6 7 7 9 9
6 8 8 7 6 6 5 5 5 5 4 4 4 2 2 3 3 3 3 3 3 4 4 4 4 6 9 10 11 11 11 8 4 4 5 5 5 6 7 8 8 9
6 7 8 6 6 6 5 5 5 5 4 3 3 3 3 3 3 3 3 3 3 3 4 4 4 6 10 11 10 11 11 8 4 4 5 5 5 6 6 7 8 9
7 7 7 6 6 5 5 5 5 4 4 3 2 2 2 2 3 3 3 3 4 4 4 4 4 8 10 11 11 12 14 8 5 5 5 4 4 5 6 6 7 8
7 7 7 6 6 6 6 5 4 3 3 2 2 3 2 2 3 2 3 4 4 3 3 4 4 7 9 10 12 14 13 6 5 5 6 6 5 4 5 5 5 7
6 7 7 7 6 6 6 5 4 3 3 2 3 3 3 3 3 3 3 3 4 3 2 4 4 6 10 12 14 16 9 5 5 6 6 7 7 5 4 5 5 6
5 6 7 6 6 6 5 3 2 2 1 2 2 2 3 3 3 3 3 3 3 3 3 3 4 7 11 13 14 16 11 7 6 7 8 7 8 6 5 4 5 10
6 5 6 6 6 5 4 3 2 1 0 2 1 1 2 3 3 3 3 3 2 2 4 3 4 6 10 13 15 16 11 6 7 7 9 8 8 9 8 7 6 8
5 6 6 6 6 4 3 2 1 1 1 1 2 1 2 3 3 3 2 2 1 1 3 3 3 4 6 16 16 16 17 9 6 7 9 11 10 9 11 11 8 7
Wind_Direction
134 125 127 123 131 135 139 128 146 142 138 123 115 114 99 96 70 75 71 61 66 66 39 19 10 100 101 74 50 43 32 26 20 20 25 31 17 7 346 340 331 317
114 104 111 108 103 102 109 118 122 123 130 128 126 124 119 98 79 90 94 90 80 73 62 50 41 25 2 7 59 58 27 25 1 2 4 358 347 342 331 322 315 309
108 116 122 127 127 118 115 106 107 107 107 110 103 93 92 78 73 65 67 70 65 50 50 56 51 38 35 35 34 69 45 1 329 327 327 306 293 287 287 291 291 288
114 120 119 120 120 118 112 100 89 92 91 77 77 83 86 81 78 70 66 62 66 53 50 51 48 39 41 38 35 34 23 13 339 3 9 5 5 356 333 327 316 321
119 109 108 107 103 100 95 96 93 91 91 104 86 76 78 77 75 69 69 60 63 57 50 43 39 38 32 33 37 35 23 18 11 27 32 10 357 15 340 352 336 325
95 101 100 103 102 101 93 92 98 99 99 86 99 88 89 85 82 77 69 68 65 68 56 46 42 35 37 34 34 42 30 23 1 23 17 359 330 340 335 332 326 316
110 102 98 97 91 88 91 89 85 84 86 110 90 78 85 78 79 82 85 90 78 65 63 51 49 32 31 46 45 30 17 17 7 16 3 334 339 324 332 329 312 302
104 98 98 94 92 87 87 83 76 83 96 78 82 73 83 89 90 93 86 72 65 55 53 50 40 38 26 42 34 23 2 5 1 356 347 322 333 315 316 319 311 304
102 99 98 96 95 92 93 92 91 85 79 87 82 76 62 76 81 74 68 67 64 55 49 37 26 17 17 39 26 21 359 339 341 343 332 325 325 312 309 314 313 298
98 101 97 97 97 102 103 99 94 88 88 89 89 80 71 51 52 57 62 66 64 50 46 37 23 18 18 36 29 18 359 338 330 333 320 309 301 302 308 312 303 304
99 98 102 101 106 107 100 94 88 89 83 86 85 74 64 62 47 42 55 56 62 61 49 32 19 33 36 17 8 19 17 351 338 335 327 314 303 297 300 301 298 290
101 100 102 106 103 93 87 84 85 82 84 71 77 80 67 60 63 43 49 50 54 62 67 30 16 35 45 34 20 19 29 8 346 333 318 314 309 304 300 297 293 292
104 105 104 96 87 82 78 77 76 75 71 70 64 73 68 59 48 52 25 48 35 55 55 42 36 40 41 39 36 31 15 360 341 334 321 315 303 300 298 295 289 285
105 103 94 89 86 85 87 85 78 70 67 61 59 57 56 55 53 52 18 45 48 87 47 73 54 41 35 29 18 12 5 347 338 329 325 317 311 304 298 291 285 282
107 97 93 90 91 91 85 80 76 74 67 61 56 51 45 39 40 58 81 23 14 54 43 43 43 24 22 8 357 348 355 344 335 326 316 309 301 295 289 287 286 279
108 105 103 102 95 91 86 81 76 72 70 65 59 52 40 18 5 334 8 33 30 22 33 28 16 6 347 346 349 345 340 330 320 310 305 301 301 301 295 285 283 287
111 108 105 96 97 91 84 79 76 76 74 70 63 56 48 16 1 6 4 359 20 19 10 8 355 346 341 345 342 338 336 322 309 303 295 292 296 297 303 307 300 290
113 111 100 95 89 86 86 87 86 83 79 79 71 50 24 25 32 15 0 353 355 7 4 347 340 330 332 333 333 332 331 325 313 306 301 299 297 300 301 305 306 307
111 106 102 97 94 95 94 90 95 89 81 71 57 34 30 38 11 12 350 339 355 350 339 332 325 319 322 324 328 331 329 329 314 302 306 304 307 306 306 310 313 313
111 107 104 104 103 99 100 100 93 85 73 64 52 28 30 6 4 354 336 339 331 324 315 316 318 314 319 322 323 323 326 343 325 317 311 306 308 307 308 314 315 319
115 112 112 111 109 108 103 89 81 73 61 47 60 38 24 355 339 337 323 319 316 318 320 313 309 313 319 323 327 340 349 354 331 322 314 310 309 307 308 313 318 316
126 125 119 119 112 103 93 85 75 76 66 29 43 8 360 6 342 340 307 314 306 312 316 306 306 319 328 330 345 354 355 343 330 324 324 320 318 320 315 315 312 312
135 130 123 113 109 100 92 85 75 48 35 52 44 6 357 335 306 296 290 299 302 308 308 303 317 330 345 352 356 354 356 346 335 330 327 326 325 324 315 310 309 312
131 126 120 114 106 102 98 90 75 63 41 38 54 337 324 291 293 298 296 286 286 302 307 323 328 338 354 359 0 360 360 349 338 337 328 325 320 319 315 314 315 330
122 117 114 112 103 98 99 88 79 81 18 30 3 332 283 288 289 277 281 292 278 285 319 5 357 347 350 3 4 2 359 354 348 336 328 326 327 326 327 327 324 324
120 112 104 101 100 91 87 106 101 66 33 16 331 312 284 288 272 271 270 303 321 354 9 17 24 351 354 5 5 4 1 358 349 340 334 329 331 332 327 323 321 315